1509462000.84,27267,7.19,72996.5,-12.11,-12.79,-12.79,0,*65
1509462002.1,27268,7.19,73002.8,-12.09,-12.71,-12.79,0,*6B
1509462003.36,27269,7.19,73010.8,-12.09,-12.71,-12.79,0,*6A
1509462004.62,27270,7.19,73014.5,-12.09,-12.79,-12.83,0,*6F
1509462005.88,27271,7.19,73012.8,-12.09,-12.79,-12.79,0,*6B
1509462007.15,27272,7.19,73018.0,-12.09,-12.71,-12.79,0,*60
1509462008.45,27273,7.19,73014.3,-12.11,-12.71,-12.71,0,*60
1509462009.73,27274,7.19,72998.0,-12.11,-12.71,-12.65,0,*62
1509462011.0,27275,7.19,73002.0,-12.09,-12.65,-12.71,0,*6A
1509462012.29,27276,7.19,72996.3,-12.11,-12.79,-12.79,0,*65
1509462013.55,27277,7.25,72974.3,-12.09,-12.79,-12.79,0,*6D
1509462014.84,27278,7.19,72960.8,-12.11,-12.79,-12.79,0,*6B
1509462016.14,27279,7.19,72978.8,-12.11,-12.71,-12.79,0,*62
1509462017.43,27280,7.19,72966.5,-12.11,-12.71,-12.79,0,*64
1509462018.69,27281,7.19,72986.5,-12.09,-12.79,-12.79,0,*64
1509462019.95,27282,7.25,72998.5,-12.09,-12.65,-12.79,0,*6A
1509462021.22,27283,7.19,73000.5,-12.09,-12.79,-12.79,0,*66
1509462022.5,27284,7.19,73010.5,-12.11,-12.71,-12.65,0,*6D
1509462023.77,27285,7.19,73002.8,-12.09,-12.71,-12.71,0,*60
1509462025.06,27286,7.19,73010.5,-12.11,-12.71,-12.65,0,*6F
1509462026.31,27287,7.19,73008.3,-12.09,-12.71,-12.65,0,*67
1509462027.57,27288,7.19,72988.8,-12.09,-12.65,-12.65,0,*6D
1509462028.82,27289,7.25,73004.0,-12.09,-12.65,-12.65,0,*6C
1509462030.09,27290,7.25,73010.0,-12.09,-12.53,-12.71,0,*64
1509462031.35,27291,7.19,73008.5,-12.09,-12.71,-12.65,0,*60
1509462032.65,27292,7.19,73010.8,-12.11,-12.71,-12.71,0,*6F
1509462033.93,27293,7.25,73024.8,-12.11,-12.65,-12.65,0,*6E
1509462035.18,27294,7.19,73014.8,-12.09,-12.65,-12.65,0,*60
1509462036.47,27295,7.19,73012.5,-12.11,-12.65,-12.65,0,*68
1509462037.75,27296,7.25,73014.0,-12.11,-12.71,-12.65,0,*6E
1509462039.02,27297,7.19,73010.5,-12.09,-12.71,-12.71,0,*63
1509462040.29,27298,7.19,73006.5,-12.09,-12.71,-12.71,0,*6C
1509462041.55,27299,7.19,73006.0,-12.09,-12.71,-12.65,0,*68
1509462042.81,27300,7.19,72996.8,-12.09,-12.71,-12.71,0,*6C
1509462044.07,27301,7.19,72998.5,-12.09,-12.65,-12.65,0,*6D
1509462045.35,27302,7.19,72994.5,-12.11,-12.71,-12.65,0,*62
1509462046.65,27303,7.25,73002.3,-12.11,-12.71,-12.71,0,*66
1509462047.92,27304,7.25,73006.8,-12.09,-12.71,-12.71,0,*68
1509462049.21,27305,7.19,73006.8,-12.11,-12.71,-12.79,0,*68
1509462050.49,27306,7.25,73012.0,-12.11,-12.65,-12.65,0,*63
1509462051.75,27307,7.19,73022.8,-12.09,-12.71,-12.65,0,*6E
1509462053.02,27308,7.19,72992.8,-12.09,-12.65,-12.71,0,*61
1509462054.28,27309,7.19,72982.3,-12.09,-12.71,-12.71,0,*65
1509462055.55,27310,7.19,72976.3,-12.09,-12.71,-12.71,0,*6D
1509462056.84,27311,7.19,72966.5,-12.11,-12.71,-12.71,0,*65
1509462058.14,27312,7.19,72974.8,-12.11,-12.71,-12.71,0,*66
1509462059.43,27313,7.19,72974.5,-12.11,-12.65,-12.65,0,*67
1509462060.72,27314,7.19,72974.0,-12.11,-12.71,-12.71,0,*60
1509462061.98,27315,7.19,72966.3,-12.09,-12.65,-12.65,0,*68
1509462063.26,27316,7.19,72982.0,-12.11,-12.65,-12.65,0,*62
1509462064.53,27317,7.19,72982.5,-12.09,-12.65,-12.71,0,*6F
1509462065.82,27318,7.19,72994.5,-12.11,-12.71,-12.71,0,*6C
1509462067.08,27319,7.25,72986.3,-12.09,-12.71,-12.65,0,*61
1509462068.37,27320,7.19,72988.3,-12.11,-12.71,-12.79,0,*6F
1509462069.64,27321,7.19,72986.0,-12.09,-12.71,-12.79,0,*67
1509462070.9,27322,7.19,72982.5,-12.09,-12.71,-12.79,0,*64
1509462072.16,27323,7.19,72980.0,-12.09,-12.71,-12.79,0,*65
1509462073.42,27324,7.25,72994.0,-12.09,-12.71,-12.65,0,*6F
1509462074.69,27325,7.19,72988.5,-12.09,-12.71,-12.71,0,*6B
1509462075.94,27326,7.19,72990.0,-12.09,-12.65,-12.65,0,*68
1509462077.21,27327,7.19,72994.8,-12.09,-12.65,-12.71,0,*6C
1509462078.47,27328,7.19,72988.8,-12.09,-12.71,-12.71,0,*66
1509462079.74,27329,7.19,72990.5,-12.09,-12.79,-12.71,0,*6F
1509462081.0,27330,7.19,72984.5,-12.09,-12.71,-12.65,0,*6A
1509462082.26,27331,7.19,72990.8,-12.09,-12.71,-12.79,0,*66
1509462083.51,27332,7.19,72992.0,-12.09,-12.71,-12.65,0,*68
1509462084.78,27333,7.19,72994.0,-12.09,-12.71,-12.71,0,*6C
1509462086.05,27334,7.19,73000.3,-12.09,-12.71,-12.71,0,*6B
1509462087.31,27335,7.19,72992.8,-12.09,-12.71,-12.79,0,*62
1509462088.58,27336,7.19,72988.5,-12.09,-12.71,-12.71,0,*69
1509462089.83,27337,7.19,72964.8,-12.09,-12.71,-12.65,0,*6D
1509462091.13,27338,7.19,72964.3,-12.11,-12.71,-12.71,0,*6E
1509462092.4,27339,7.19,72992.5,-12.09,-12.71,-12.71,0,*66
1509462093.65,27340,7.19,72994.0,-12.09,-12.71,-12.65,0,*6D
1509462094.94,27341,7.19,72986.3,-12.07,-12.65,-12.65,0,*67
1509462096.23,27342,7.19,72988.5,-12.07,-12.65,-12.61,0,*60
1509462097.51,27343,7.19,72992.3,-12.07,-12.61,-12.61,0,*65
1509462098.77,27344,7.19,72994.3,-12.09,-12.71,-12.65,0,*69
1509462100.03,27345,7.19,72984.0,-12.09,-12.57,-12.65,0,*6C
1509462101.28,27346,7.19,72990.5,-12.09,-12.65,-12.65,0,*6E
1509462102.54,27347,7.19,72994.5,-12.09,-12.65,-12.65,0,*6F
1509462103.82,27348,7.19,72994.0,-12.07,-12.61,-12.65,0,*6A
1509462105.11,27349,7.19,73002.0,-12.07,-12.65,-12.61,0,*6B
1509462106.4,27350,7.19,72996.3,-12.07,-12.65,-12.61,0,*63
1509462107.68,27351,7.19,72998.0,-12.07,-12.61,-12.65,0,*62
1509462108.97,27352,7.19,72990.0,-12.07,-12.65,-12.75,0,*64
1509462110.23,27353,7.19,72978.5,-12.09,-12.71,-12.79,0,*62
1509462111.5,27354,7.19,72980.5,-12.09,-12.71,-12.71,0,*6D
1509462112.77,27355,7.19,72980.8,-12.09,-12.71,-12.71,0,*6C
1509462114.03,27356,7.19,72992.8,-12.09,-12.71,-12.71,0,*6F
1509462115.3,27357,7.19,72998.5,-12.09,-12.71,-12.71,0,*6E
1509462116.57,27358,7.25,73000.3,-12.09,-12.71,-12.71,0,*61
1509462117.85,27359,7.19,72980.0,-12.07,-12.65,-12.65,0,*6E
1509462119.14,27360,7.19,72982.5,-12.07,-12.75,-12.65,0,*65
1509462120.43,27361,7.19,72992.3,-12.07,-12.65,-12.75,0,*64
1509462121.72,27362,7.19,72998.5,-12.07,-12.65,-12.61,0,*62
1509462122.99,27363,7.19,72992.3,-12.09,-12.65,-12.71,0,*6C
1509462124.27,27364,7.19,72986.0,-12.07,-12.65,-12.65,0,*60
1509462125.56,27365,7.19,72978.8,-12.07,-12.61,-12.65,0,*65
1509462126.84,27366,7.19,72990.5,-12.07,-12.61,-12.65,0,*66
1509462128.13,27367,7.19,72990.3,-12.07,-12.61,-12.61,0,*63
1509462129.41,27368,7.19,72994.3,-12.07,-12.65,-12.61,0,*68
1509462130.67,27369,7.19,72998.5,-12.09,-12.65,-12.65,0,*63
1509462131.93,27370,7.19,73002.0,-12.09,-12.65,-12.79,0,*66
1509462133.22,27371,7.19,73006.0,-12.07,-12.65,-12.61,0,*60
1509462134.5,27372,7.19,73004.0,-12.07,-12.65,-12.65,0,*67
1509462135.79,27373,7.19,73002.8,-12.07,-12.61,-12.65,0,*62
1509462137.07,27374,7.19,72996.3,-12.07,-12.61,-12.65,0,*65
1509462138.33,27375,7.19,73000.0,-12.05,-12.65,-12.65,0,*62
1509462139.62,27376,7.19,72998.5,-12.07,-12.65,-12.61,0,*67
1509462140.9,27377,7.19,73002.8,-12.07,-12.65,-12.65,0,*62
1509462142.19,27378,7.19,72994.5,-12.07,-12.65,-12.65,0,*6D
1509462143.47,27379,7.19,72986.0,-12.07,-12.61,-12.65,0,*68
1509462144.76,27380,7.19,72990.5,-12.07,-12.65,-12.61,0,*6E
1509462146.05,27381,7.19,72990.5,-12.07,-12.65,-12.75,0,*6A
1509462147.35,27382,7.19,72992.3,-12.07,-12.75,-12.75,0,*68
1509462148.64,27383,7.19,72990.3,-12.07,-12.75,-12.75,0,*69
1509462149.94,27384,7.19,72978.5,-12.07,-12.75,-12.79,0,*62
1509462151.24,27385,7.25,72984.5,-12.07,-12.75,-12.75,0,*6F
1509462152.53,27386,7.19,72968.5,-12.07,-12.79,-12.75,0,*60
1509462153.82,27387,7.19,72982.5,-12.07,-12.75,-12.65,0,*6C
1509462155.11,27388,7.19,72972.8,-12.07,-12.75,-12.65,0,*63
1509462156.39,27389,7.19,72948.3,-12.07,-12.65,-12.65,0,*63
1509462157.68,27390,7.19,72954.3,-12.07,-12.65,-12.65,0,*6B
1509462158.97,27391,7.19,72920.5,-12.07,-12.65,-12.61,0,*6E
1509462160.25,27392,7.19,72940.5,-12.07,-12.65,-12.61,0,*6D
1509462161.52,27393,7.19,72952.5,-12.05,-12.65,-12.65,0,*6A
1509462162.78,27394,7.19,72978.3,-12.05,-12.65,-12.61,0,*69
1509462164.06,27395,7.19,72990.5,-12.07,-12.61,-12.65,0,*6A
1509462165.33,27396,7.19,72984.3,-12.05,-12.65,-12.61,0,*6B
1509462166.61,27397,7.25,72996.3,-12.07,-12.61,-12.61,0,*6C
1509462167.9,27398,7.25,72998.3,-12.07,-12.53,-12.65,0,*66
1509462169.19,27399,7.19,72974.0,-12.07,-12.61,-12.61,0,*62
1509462170.45,27400,7.19,72986.3,-12.07,-12.47,-12.65,0,*65
1509462171.74,27401,7.19,72978.3,-12.07,-12.65,-12.61,0,*60
1509462173.03,27402,7.19,72990.0,-12.07,-12.53,-12.61,0,*66
1509462174.32,27403,7.19,72994.8,-12.07,-12.53,-12.61,0,*67
1509462175.59,27404,7.19,72996.3,-12.05,-12.53,-12.53,0,*63
1509462176.88,27405,7.19,72996.3,-12.07,-12.61,-12.61,0,*60
1509462178.17,27406,7.19,72998.5,-12.07,-12.61,-12.61,0,*63
1509462179.45,27407,7.19,73000.5,-12.07,-12.61,-12.61,0,*62
1509462180.71,27408,7.19,72992.3,-12.05,-12.65,-12.65,0,*6F
1509462181.97,27409,7.19,72996.5,-12.05,-12.61,-12.65,0,*6A
1509462183.23,27410,7.19,72994.8,-12.05,-12.61,-12.61,0,*66
1509462184.52,27411,7.19,72990.3,-12.07,-12.61,-12.61,0,*65
1509462185.78,27412,7.19,72994.5,-12.05,-12.65,-12.65,0,*64
1509462187.07,27413,7.19,72994.5,-12.07,-12.61,-12.61,0,*67
1509462188.33,27414,7.19,72994.0,-12.05,-12.61,-12.61,0,*62
1509462189.59,27415,7.19,72996.5,-12.05,-12.61,-12.61,0,*63
1509462190.88,27416,7.19,73002.3,-12.07,-12.61,-12.61,0,*62
1509462192.14,27417,7.19,73002.8,-12.05,-12.53,-12.65,0,*64
1509462193.38,27418,7.19,73006.0,-12.05,-12.61,-12.47,0,*6A
1509462194.67,27419,7.19,73004.0,-12.07,-12.61,-12.61,0,*6D
1509462195.95,27420,7.19,73010.0,-12.07,-12.61,-12.61,0,*67
1509462197.21,27421,7.19,73006.0,-12.05,-12.61,-12.65,0,*60
1509462198.48,27422,7.19,73002.8,-12.05,-12.53,-12.53,0,*67
1509462199.77,27423,7.19,73002.3,-12.07,-12.61,-12.53,0,*65
1509462201.04,27424,7.19,73002.3,-12.05,-12.53,-12.53,0,*61
1509462202.31,27425,7.19,73004.5,-12.05,-12.65,-12.61,0,*64
1509462203.6,27426,7.19,73004.5,-12.07,-12.61,-12.53,0,*60
1509462204.89,27427,7.19,73004.8,-12.07,-12.61,-12.53,0,*61
1509462206.15,27428,7.19,73016.8,-12.05,-12.61,-12.61,0,*6D
1509462207.41,27429,7.19,73020.0,-12.05,-12.53,-12.61,0,*6D
1509462208.68,27430,7.19,72996.8,-12.05,-12.61,-12.61,0,*64
1509462209.94,27431,7.19,72996.8,-12.05,-12.61,-12.61,0,*65
1509462211.2,27432,7.19,72988.0,-12.05,-12.65,-12.65,0,*66
1509462212.47,27433,7.19,73008.0,-12.05,-12.53,-12.61,0,*66
1509462213.73,27434,7.19,73014.3,-12.05,-12.61,-12.61,0,*60
1509462214.97,27435,7.19,73012.0,-12.05,-12.47,-12.65,0,*61
1509462216.24,27436,7.19,73010.8,-12.05,-12.53,-12.53,0,*62
1509462217.52,27437,7.19,73010.8,-12.07,-12.61,-12.61,0,*61
1509462218.79,27438,7.19,73010.0,-12.05,-12.53,-12.61,0,*6D
1509462220.06,27439,7.19,73006.5,-12.05,-12.53,-12.61,0,*6C
1509462221.32,27440,7.19,73010.0,-12.05,-12.61,-12.61,0,*63
1509462222.58,27441,7.19,73004.3,-12.05,-12.61,-12.65,0,*66
1509462223.84,27442,7.19,73016.0,-12.05,-12.65,-12.61,0,*65
1509462225.11,27443,7.19,73014.3,-12.05,-12.61,-12.61,0,*60
1509462226.4,27444,7.19,73014.3,-12.01,-12.61,-12.57,0,*66
1509462227.69,27445,7.19,73020.8,-12.01,-12.57,-12.61,0,*67
1509462228.98,27446,7.19,73020.3,-12.01,-12.61,-12.57,0,*64
1509462230.27,27447,7.19,73012.0,-12.01,-12.57,-12.57,0,*60
1509462231.56,27448,7.19,73004.8,-12.01,-12.57,-12.61,0,*6A
1509462232.85,27449,7.19,73000.0,-12.01,-12.57,-12.57,0,*6E
1509462234.12,27450,7.19,73010.8,-12.05,-12.61,-12.61,0,*62
1509462235.38,27451,7.19,73022.3,-12.05,-12.61,-12.53,0,*62
1509462236.65,27452,7.19,73018.3,-12.05,-12.53,-12.53,0,*60
1509462237.94,27453,7.19,73020.0,-12.01,-12.57,-12.57,0,*65
1509462239.19,27454,7.19,73016.8,-12.01,-12.47,-12.47,0,*62
1509462240.46,27455,7.19,73020.3,-12.01,-12.47,-12.57,0,*62
1509462241.75,27456,7.19,73022.3,-12.01,-12.61,-12.57,0,*65
1509462243.04,27457,7.25,73018.5,-12.01,-12.57,-12.61,0,*64
1509462244.33,27458,7.19,73024.0,-12.01,-12.57,-12.57,0,*6E
1509462245.59,27459,7.19,73022.8,-12.05,-12.61,-12.65,0,*6F
1509462246.88,27460,7.19,73026.8,-12.01,-12.61,-12.61,0,*65
1509462248.17,27461,7.25,73032.0,-12.01,-12.61,-12.57,0,*61
1509462249.43,27462,7.19,73014.3,-12.05,-12.61,-12.61,0,*63
1509462250.7,27463,7.19,73010.0,-12.05,-12.53,-12.61,0,*63
1509462251.96,27464,7.19,72994.8,-12.05,-12.65,-12.65,0,*65
1509462253.22,27465,7.19,73002.0,-12.05,-12.61,-12.61,0,*64
1509462254.51,27466,7.19,73006.0,-12.01,-12.57,-12.61,0,*66
1509462255.78,27467,7.19,73002.5,-12.01,-12.61,-12.47,0,*66
1509462257.04,27468,7.19,72984.0,-12.05,-12.65,-12.61,0,*6D
1509462258.31,27469,7.25,72958.5,-12.05,-12.65,-12.61,0,*6C
1509462259.6,27470,7.25,72966.3,-12.01,-12.57,-12.57,0,*64
1509462260.89,27471,7.19,72982.3,-12.01,-12.71,-12.61,0,*64
1509462262.18,27472,7.19,72972.5,-12.01,-12.61,-12.57,0,*63
1509462263.47,27473,7.19,72994.3,-12.01,-12.57,-12.57,0,*67
1509462264.76,27474,7.19,72998.5,-12.01,-12.61,-12.57,0,*65
1509462266.03,27475,7.19,72984.3,-12.01,-12.57,-12.47,0,*60
1509462267.32,27476,7.19,72986.3,-12.01,-12.61,-12.61,0,*62
1509462268.61,27477,7.19,72984.3,-12.01,-12.57,-12.61,0,*66
1509462269.9,27478,7.19,72986.5,-12.01,-12.61,-12.61,0,*6C
1509462271.2,27479,7.19,72986.8,-12.01,-12.61,-12.71,0,*6C
1509462272.49,27480,7.19,72984.3,-12.01,-12.61,-12.61,0,*6B
1509462273.78,27481,7.19,72982.3,-12.01,-12.61,-12.61,0,*6A
1509462275.06,27482,7.25,72974.8,-12.01,-12.61,-12.61,0,*69
1509462276.36,27483,7.19,72976.5,-12.01,-12.61,-12.71,0,*69
1509462277.66,27484,7.19,72980.8,-12.01,-12.71,-12.75,0,*6B
1509462278.96,27485,7.19,72978.3,-12.01,-12.75,-12.71,0,*6A
1509462280.26,27486,7.19,72982.0,-12.01,-12.71,-12.75,0,*69
1509462281.56,27487,7.19,72980.0,-12.01,-12.71,-12.71,0,*6C
1509462282.86,27488,7.19,72982.0,-12.01,-12.71,-12.71,0,*63
1509462284.16,27489,7.25,72990.0,-12.01,-12.71,-12.71,0,*62
1509462285.43,27490,7.19,72988.3,-12.05,-12.75,-12.75,0,*6E
1509462286.7,27491,7.19,72982.8,-12.05,-12.75,-12.79,0,*63
1509462287.97,27492,7.19,72984.3,-12.05,-12.75,-12.75,0,*6C
1509462289.24,27493,7.19,72986.8,-12.05,-12.65,-12.61,0,*69
1509462290.51,27494,7.25,72988.3,-12.05,-12.65,-12.75,0,*6B
1509462291.77,27495,7.19,72994.3,-12.05,-12.65,-12.61,0,*6F
1509462293.03,27496,7.25,73010.0,-12.05,-12.65,-12.61,0,*6C
1509462294.3,27497,7.19,72986.5,-12.05,-12.65,-12.61,0,*6D
1509462295.59,27498,7.19,72982.0,-12.01,-12.57,-12.57,0,*62
1509462296.88,27499,7.19,72984.0,-12.01,-12.57,-12.57,0,*63
1509462298.14,27500,7.19,72980.0,-11.99,-12.61,-12.61,0,*60
1509462299.44,27501,7.25,72986.8,-12.01,-12.57,-12.61,0,*66
1509462300.73,27502,7.25,72996.3,-12.01,-12.61,-12.57,0,*65
1509462302.02,27503,7.19,72990.3,-12.01,-12.57,-12.57,0,*61
1509462303.31,27504,7.19,73000.0,-12.01,-12.61,-12.57,0,*63
1509462304.6,27505,7.19,73000.8,-12.01,-12.61,-12.57,0,*62
1509462305.89,27506,7.25,73010.5,-12.01,-12.57,-12.61,0,*61
1509462307.18,27507,7.19,73004.0,-12.01,-12.57,-12.57,0,*65
1509462308.47,27508,7.19,73002.5,-12.01,-12.57,-12.61,0,*6F
1509462309.76,27509,7.19,73006.5,-12.01,-12.61,-12.61,0,*6B
1509462311.05,27510,7.25,73012.8,-12.01,-12.57,-12.57,0,*63
1509462312.35,27511,7.19,73010.5,-12.01,-12.57,-12.57,0,*62
1509462313.64,27512,7.25,73012.3,-12.01,-12.57,-12.57,0,*61
1509462314.9,27513,7.25,73012.0,-11.99,-12.61,-12.61,0,*62
1509462316.16,27514,7.25,73006.5,-12.05,-12.61,-12.61,0,*63
1509462317.45,27515,7.19,73002.3,-12.01,-12.61,-12.57,0,*63
1509462318.74,27516,7.19,73002.3,-12.01,-12.57,-12.57,0,*65
1509462320.03,27517,7.19,73002.3,-12.01,-12.61,-12.61,0,*64
1509462321.33,27518,7.25,72996.0,-12.01,-12.57,-12.61,0,*6E
1509462322.62,27519,7.19,72998.0,-12.01,-12.61,-12.57,0,*6F
1509462323.9,27520,7.25,72994.3,-12.01,-12.61,-12.57,0,*65
1509462325.17,27521,7.19,72994.3,-11.99,-12.57,-12.57,0,*63
1509462326.46,27522,7.19,72992.5,-12.01,-12.61,-12.57,0,*67
1509462327.76,27523,7.25,72998.3,-12.01,-12.57,-12.71,0,*67
1509462329.05,27524,7.19,72992.0,-12.01,-12.61,-12.61,0,*64
1509462330.34,27525,7.19,72996.5,-12.01,-12.57,-12.57,0,*65
1509462331.6,27526,7.19,72998.0,-11.99,-12.61,-12.57,0,*61
1509462332.9,27527,7.25,72994.5,-12.01,-12.57,-12.57,0,*67
1509462334.18,27528,7.19,72998.0,-12.01,-12.61,-12.57,0,*6D
1509462335.48,27529,7.19,72996.8,-12.01,-12.57,-12.61,0,*6C
1509462336.75,27530,7.19,72992.8,-12.01,-12.47,-12.57,0,*60
1509462338.04,27531,7.19,72992.0,-12.01,-12.57,-12.57,0,*60
1509462339.33,27532,7.19,72988.8,-12.01,-12.57,-12.61,0,*66
1509462340.62,27533,7.19,72986.5,-12.01,-12.61,-12.57,0,*67
1509462341.91,27534,7.19,72990.3,-12.01,-12.61,-12.57,0,*60
1509462343.17,27535,7.19,72990.0,-11.99,-12.57,-12.57,0,*66
1509462344.46,27536,7.19,72988.8,-12.01,-12.61,-12.57,0,*62
1509462345.75,27537,7.19,72990.8,-12.01,-12.61,-12.61,0,*66
1509462347.04,27538,7.19,72998.3,-12.01,-12.57,-12.61,0,*6C
1509462348.33,27539,7.19,73004.0,-12.01,-12.61,-12.61,0,*68
1509462349.6,27540,7.19,73006.5,-11.99,-12.57,-12.61,0,*61
1509462350.89,27541,7.19,73008.0,-12.01,-12.57,-12.57,0,*67
1509462352.18,27542,7.25,73016.0,-12.01,-12.57,-12.61,0,*61
1509462353.47,27543,7.25,72996.8,-12.01,-12.61,-12.57,0,*60
1509462354.74,27544,7.25,72992.8,-11.99,-12.57,-12.57,0,*60
1509462356.03,27545,7.19,72990.8,-12.01,-12.57,-12.57,0,*63
1509462357.3,27546,7.19,73000.3,-11.99,-12.57,-12.57,0,*62
1509462358.56,27547,7.25,72998.8,-11.99,-12.57,-12.57,0,*63
1509462359.85,27548,7.19,73000.8,-12.01,-12.61,-12.57,0,*6B
1509462361.14,27549,7.19,73002.0,-12.01,-12.61,-12.57,0,*6A
1509462362.43,27550,7.19,73006.8,-12.01,-12.57,-12.61,0,*62
1509462363.7,27551,7.25,73014.0,-11.99,-12.61,-12.61,0,*64
1509462364.98,27552,7.25,73018.8,-12.01,-12.61,-12.61,0,*65
1509462366.28,27553,7.25,73022.5,-12.01,-12.57,-12.57,0,*64
1509462367.57,27554,7.25,73024.3,-12.01,-12.61,-12.61,0,*63
1509462368.86,27555,7.19,73010.3,-12.01,-12.57,-12.61,0,*67
1509462370.15,27556,7.19,73028.8,-12.01,-12.57,-12.57,0,*61
1509462371.44,27557,7.25,73002.5,-12.01,-12.57,-12.61,0,*65
1509462372.71,27558,7.25,72994.5,-11.99,-12.61,-12.57,0,*68
1509462374.0,27559,7.19,72986.3,-12.01,-12.57,-12.61,0,*6B
1509462375.29,27560,7.25,72996.5,-12.01,-12.61,-12.61,0,*64
1509462376.58,27561,7.19,72992.3,-12.01,-12.57,-12.61,0,*60
1509462377.87,27562,7.19,72990.3,-12.01,-12.61,-12.57,0,*63
1509462379.13,27563,7.25,72988.5,-11.99,-12.61,-12.57,0,*60
1509462380.4,27564,7.19,72988.3,-11.99,-12.57,-12.57,0,*62
1509462381.66,27565,7.19,72978.5,-11.99,-12.61,-12.61,0,*63
1509462382.92,27566,7.25,72992.0,-11.99,-12.57,-12.57,0,*60
1509462384.22,27567,7.19,72994.3,-12.01,-12.71,-12.61,0,*62
1509462385.48,27568,7.25,73012.8,-11.99,-12.61,-12.57,0,*6B
1509462386.77,27569,7.25,73016.5,-12.01,-12.61,-12.61,0,*6D
1509462388.04,27570,7.19,73008.5,-11.99,-12.61,-12.71,0,*66
1509462389.34,27571,7.25,72998.5,-12.01,-12.57,-12.71,0,*60
1509462390.61,27572,7.19,73008.3,-11.99,-12.71,-12.57,0,*61
1509462391.87,27573,7.19,73004.5,-11.99,-12.61,-12.61,0,*64
1509462393.13,27574,7.19,72982.8,-11.99,-12.57,-12.61,0,*66
1509462394.4,27575,7.25,72964.5,-12.01,-12.61,-12.47,0,*64
1509462395.69,27576,7.25,73000.8,-12.01,-12.61,-12.61,0,*63
1509462396.95,27577,7.25,73002.0,-11.99,-12.57,-12.57,0,*60
1509462398.24,27578,7.25,73000.0,-12.01,-12.61,-12.61,0,*6D
1509462399.53,27579,7.25,73004.0,-12.01,-12.57,-12.61,0,*69
1509462400.82,27580,7.25,73000.5,-12.01,-12.61,-12.61,0,*6A
1509462402.09,27581,7.25,72996.5,-11.99,-12.57,-12.57,0,*69
1509462403.38,27582,7.25,72992.5,-12.01,-12.57,-12.61,0,*6D
1509462404.67,27583,7.19,72994.0,-12.01,-12.61,-12.61,0,*69
1509462405.97,27584,7.25,72994.3,-12.01,-12.61,-12.71,0,*6F
1509462407.23,27585,7.25,72992.5,-11.99,-12.61,-12.61,0,*6D
1509462408.52,27586,7.25,73000.3,-12.01,-12.61,-12.61,0,*6C
1509462409.78,27587,7.19,72990.8,-11.99,-12.71,-12.61,0,*6E
1509462411.07,27588,7.25,72990.3,-12.01,-12.61,-12.61,0,*62
1509462412.37,27589,7.25,72986.0,-12.01,-12.61,-12.71,0,*62
1509462413.66,27590,7.25,72986.0,-12.01,-12.61,-12.61,0,*6B
1509462414.93,27591,7.25,72968.5,-11.99,-12.61,-12.71,0,*69
1509462416.23,27592,7.25,72972.0,-12.01,-12.61,-12.71,0,*68
1509462417.53,27593,7.25,72968.8,-12.01,-12.57,-12.71,0,*6C
1509462418.82,27594,7.25,72962.5,-12.01,-12.71,-12.75,0,*6B
1509462420.12,27595,7.25,72964.8,-12.01,-12.71,-12.71,0,*6E
1509462421.42,27596,7.25,72964.0,-12.01,-12.71,-12.71,0,*6D
1509462422.7,27597,7.25,72962.8,-11.99,-12.71,-12.71,0,*6E
1509462423.99,27598,7.25,72952.5,-12.01,-12.57,-12.61,0,*66
1509462425.28,27599,7.25,72964.0,-12.01,-12.61,-12.57,0,*67
1509462426.57,27600,7.25,72954.8,-12.01,-12.61,-12.71,0,*60
1509462427.88,27601,7.25,72952.5,-12.01,-12.75,-12.71,0,*64
1509462429.18,27602,7.25,72954.8,-12.01,-12.71,-12.71,0,*63
1509462430.46,27603,7.25,72946.5,-12.01,-12.61,-12.61,0,*62
1509462431.76,27604,7.19,72946.5,-12.01,-12.71,-12.61,0,*64
1509462433.05,27605,7.25,72952.8,-12.01,-12.61,-12.71,0,*65
1509462434.34,27606,7.25,72966.0,-12.01,-12.61,-12.61,0,*67
1509462435.63,27607,7.25,72926.8,-12.01,-12.71,-12.61,0,*67
1509462436.93,27608,7.25,72938.5,-12.01,-12.71,-12.75,0,*6D
1509462438.2,27609,7.25,72948.8,-11.99,-12.61,-12.61,0,*6A
1509462439.49,27610,7.25,72944.0,-12.01,-12.61,-12.71,0,*61
1509462440.78,27611,7.25,72950.0,-12.01,-12.61,-12.61,0,*61
1509462442.07,27612,7.25,72946.5,-12.01,-12.71,-12.61,0,*63
1509462443.34,27613,7.25,72946.3,-11.99,-12.61,-12.61,0,*61
1509462444.6,27614,7.25,72950.5,-11.99,-12.61,-12.71,0,*67
1509462445.89,27615,7.25,72954.5,-12.01,-12.61,-12.57,0,*60
1509462447.19,27616,7.25,72956.5,-12.01,-12.61,-12.71,0,*67
1509462448.48,27617,7.25,72962.0,-12.01,-12.61,-12.61,0,*67
1509462449.75,27618,7.25,72962.0,-11.99,-12.61,-12.71,0,*6B
1509462451.05,27619,7.25,72956.0,-12.01,-12.71,-12.71,0,*69
1509462452.32,27620,7.25,72962.8,-11.99,-12.57,-12.57,0,*61
1509462453.6,27621,7.25,72960.0,-12.01,-12.61,-12.57,0,*67
1509462454.89,27622,7.25,72962.5,-12.01,-12.61,-12.61,0,*61
1509462456.18,27623,7.19,72952.3,-12.01,-12.61,-12.61,0,*60
1509462457.47,27624,7.25,72960.8,-12.01,-12.61,-12.61,0,*67
1509462458.73,27625,7.25,72966.0,-11.99,-12.61,-12.61,0,*64
1509462460.0,27626,7.25,72968.0,-11.99,-12.61,-12.57,0,*62
1509462461.29,27627,7.25,72964.8,-12.01,-12.57,-12.61,0,*61
1509462462.58,27628,7.25,72966.5,-12.01,-12.61,-12.61,0,*6B
1509462463.87,27629,7.25,72962.8,-12.01,-12.61,-12.61,0,*6A
1509462465.16,27630,7.25,72972.0,-12.01,-12.61,-12.57,0,*67
1509462466.42,27631,7.25,72968.3,-11.99,-12.57,-12.57,0,*61
1509462467.72,27632,7.25,72968.8,-12.01,-12.57,-12.61,0,*65
1509462468.98,27633,7.25,72964.8,-11.99,-12.57,-12.61,0,*66
1509462470.25,27634,7.19,72968.0,-11.99,-12.57,-12.57,0,*64
1509462471.53,27635,7.25,72976.0,-12.01,-12.61,-12.61,0,*67
1509462472.8,27636,7.25,72982.8,-11.99,-12.57,-12.61,0,*63
1509462474.09,27637,7.25,72990.5,-12.01,-12.57,-12.61,0,*60
1509462475.36,27638,7.25,72994.0,-11.99,-12.57,-12.61,0,*6D
1509462476.65,27639,7.25,72986.8,-12.01,-12.57,-12.61,0,*6E
1509462477.89,27640,7.25,72970.3,-11.99,-12.47,-12.57,0,*66
1509462479.16,27641,7.25,72966.8,-11.99,-12.57,-12.61,0,*63
1509462480.45,27642,7.25,72960.3,-12.01,-12.61,-12.57,0,*62
1509462481.71,27643,7.25,72966.3,-11.99,-12.57,-12.57,0,*64
1509462483.01,27644,7.25,72976.0,-12.01,-12.61,-12.71,0,*60
1509462484.3,27645,7.25,72970.0,-12.01,-12.57,-12.61,0,*65
1509462485.59,27646,7.25,72968.3,-12.01,-12.61,-12.61,0,*63
1509462486.88,27647,7.25,72970.3,-12.01,-12.61,-12.61,0,*62
1509462488.17,27648,7.25,72970.3,-12.01,-12.61,-12.61,0,*6D
1509462489.43,27649,7.25,72974.8,-11.99,-12.71,-12.61,0,*6F
1509462490.7,27650,7.25,72950.3,-11.99,-12.61,-12.57,0,*63
1509462491.98,27651,7.25,72950.0,-12.01,-12.61,-12.61,0,*65
1509462493.27,27652,7.25,72954.5,-12.01,-12.61,-12.57,0,*63
1509462494.54,27653,7.25,72956.5,-11.99,-12.61,-12.61,0,*65
1509462495.81,27654,7.25,72948.5,-11.99,-12.57,-12.71,0,*66
1509462497.1,27655,7.25,72964.0,-12.01,-12.61,-12.57,0,*64
1509462498.39,27656,7.25,72952.3,-12.01,-12.57,-12.61,0,*67
1509462499.66,27657,7.25,72956.0,-12.01,-12.47,-12.57,0,*62
1509462500.92,27658,7.25,72960.0,-11.99,-12.57,-12.57,0,*6E
1509462502.19,27659,7.25,72974.8,-11.99,-12.57,-12.61,0,*6A
1509462503.45,27660,7.25,72966.8,-11.99,-12.61,-12.61,0,*65
1509462504.71,27661,7.25,72976.0,-11.99,-12.61,-12.57,0,*61
1509462505.98,27662,7.25,72980.8,-11.99,-12.57,-12.61,0,*62
1509462507.24,27663,7.25,72978.3,-11.99,-12.61,-12.57,0,*63
1509462508.51,27664,7.25,72970.5,-11.99,-12.57,-12.61,0,*64
1509462509.77,27665,7.25,72976.3,-11.99,-12.61,-12.61,0,*60
1509462511.06,27666,7.19,72976.5,-12.01,-12.61,-12.57,0,*64